Forside
METAR-TAF:

METAR-TAF

Lufthavne :

Ludington, Michigan, USA

Breddekreds: 43-58N, længdekreds: 086-24W, højde: 197 m

Aktuelle vejr

Denne rapport blev lavet for 29 minutter siden, kl. 08:35 UTC
Vind 3 kt fra vestsydvest
Temperatur 14°C
Fugtighed 67%
Tryk 1012 hPa
Sigt: 16.1 km
skyfri

METAR: KLDM 260835Z AUTO 24003KT 10SM CLR 14/08 A2989 RMK AO2 T01360075

Tid: 05:04 (09:04 UTC)


TAF: fraværende

Vejrobservationer og prognoser fra mere end 4000 lufthavne (METAR og TAF).

De gule og røde prikker repræsenterer de meteorologiske stationer.

Flyt musen over at se navnet på stationen.

Så klik over at se vejr observationer og prognoser.

At skifte det kort: Klik på de grønne knapper med et sort kors for at zoome ind; på den grønne knap med en bindestreg for at zoome ud; eller på de grønne pile for tilstødende kort.


METAR-TAF: